Location: Unspecified
(0.0000°N, 0.0000°E)
Time: 22:47:15
(UTC+01:00)

Vanguard 2 - All Passes

Search period start: 18 January 2018 00:00
Search period end: 28 January 2018 00:00
Orbit: 552 x 2940 km, 32.9° (Epoch: 17 January)

Date Brightness Start Highest point End Pass type
(mag) Time Alt. Az. Time Alt. Az. Time Alt. Az.
18 Jan - 00:38:49 10° SSW 00:42:54 42° SE 00:48:35 10° ENE night (unlit)
18 Jan - 02:46:52 10° W 02:51:53 32° NNW 02:59:32 10° NE visible
18 Jan - 05:00:05 10° NW 05:04:14 13° N 05:09:11 10° NNE visible
18 Jan - 07:15:06 10° NNW 07:20:10 12° N 07:25:48 10° NNE daylight
18 Jan - 09:24:42 10° NNW 09:37:16 25° NNE 09:50:16 10° ENE daylight
18 Jan - 11:34:57 10° NW 11:52:23 55° NNE 12:06:42 10° ESE daylight
18 Jan - 13:48:00 10° WNW 14:05:09 67° SW 14:16:47 10° SE daylight
18 Jan - 16:06:56 10° W 16:16:02 21° SW 16:22:50 10° S daylight
19 Jan - 00:56:34 10° SW 01:00:53 80° SE 01:07:09 10° ENE night (unlit)
19 Jan - 03:06:00 10° WNW 03:10:36 21° NNW 03:16:59 10° NNE visible
19 Jan - 05:21:55 10° NNW 05:23:42 10° N 05:25:36 10° N visible
19 Jan - 07:33:38 10° NNW 07:40:05 14° NNE 07:47:19 10° NE daylight
19 Jan - 09:42:30 10° NNW 09:56:31 31° NNE 10:10:46 10° E daylight
19 Jan - 11:52:59 10° NW 12:10:59 69° NE 12:25:23 10° ESE daylight
19 Jan - 14:07:03 10° WNW 14:23:20 52° SW 14:34:32 10° SE daylight
19 Jan - 16:28:40 10° WSW 16:34:31 14° SW 16:39:19 10° S daylight
19 Jan - 23:08:51 10° S 23:10:55 14° SE 23:13:06 10° ESE night (unlit)
20 Jan - 01:14:41 10° WSW 01:19:00 56° NNW 01:25:18 10° NE night (unlit)
20 Jan - 03:25:51 10° NW 03:29:29 15° NNW 03:34:00 10° NNE visible
20 Jan - 07:51:35 10° NNW 07:59:51 16° NNE 08:09:14 10° NE daylight
20 Jan - 10:00:14 10° NNW 10:15:31 39° NNE 10:30:44 10° E daylight
20 Jan - 12:11:11 10° NW 12:29:26 85° NE 12:43:47 10° ESE daylight
20 Jan - 14:26:35 10° W 14:41:32 39° SW 14:52:07 10° SSE daylight
20 Jan - 23:25:35 10° SSW 23:28:57 26° SE 23:32:47 10° E night (unlit)
21 Jan - 01:33:14 10° W 01:37:20 32° NNW 01:43:04 10° NE night (unlit)
21 Jan - 03:47:53 10° NNW 03:48:33 10° N 03:49:13 10° N visible
21 Jan - 08:09:15 10° NNW 08:19:22 20° NNE 08:30:55 10° ENE daylight
21 Jan - 10:18:01 10° NW 10:34:18 49° NNE 10:50:10 10° ESE daylight
21 Jan - 12:29:38 10° WNW 12:47:47 78° SW 13:01:56 10° SE daylight
21 Jan - 14:46:40 10° W 14:59:50 30° SW 15:09:31 10° SSE daylight
21 Jan - 23:43:05 10° SW 23:46:57 53° SE 23:51:34 10° ENE night (unlit)
22 Jan - 01:52:19 10° WNW 01:55:50 19° NNW 02:00:24 10° NNE night (unlit)
22 Jan - 08:26:51 10° NNW 08:38:35 26° NNE 08:52:03 10° ENE daylight
22 Jan - 10:35:54 10° NW 10:52:54 61° NE 11:09:10 10° ESE daylight
22 Jan - 12:48:23 10° WNW 13:06:05 63° SW 13:19:51 10° SE daylight
22 Jan - 15:07:28 10° WSW 15:18:21 22° SW 15:26:43 10° SSE daylight
23 Jan - 00:01:04 10° WSW 00:04:59 73° NW 00:09:50 10° NE night (unlit)
23 Jan - 02:12:28 10° NW 02:14:32 12° NNW 02:16:53 10° N night (unlit)
23 Jan - 06:38:22 10° N 06:42:34 12° NNE 06:47:13 10° NE visible
23 Jan - 08:44:26 10° NNW 08:57:32 33° NNE 09:12:34 10° E daylight
23 Jan - 10:53:55 10° NW 11:11:22 76° NE 11:27:50 10° ESE daylight
23 Jan - 13:07:31 10° WNW 13:24:25 49° SW 13:37:37 10° SE daylight
23 Jan - 15:29:07 10° WSW 15:37:06 16° SSW 15:43:38 10° S daylight
23 Jan - 22:11:58 10° SSW 22:14:56 18° SSE 22:17:45 10° ESE visible
24 Jan - 00:19:28 10° W 00:23:09 35° NNW 00:27:38 10° NE night (unlit)
24 Jan - 06:55:13 10° N 07:02:00 15° NNE 07:10:00 10° NE daylight
24 Jan - 09:02:04 10° NNW 09:16:15 42° NE 09:32:29 10° E daylight
24 Jan - 11:12:09 10° NW 11:29:47 88° SW 11:46:10 10° SE daylight
24 Jan - 13:27:07 10° W 13:42:50 38° SW 13:55:14 10° SSE daylight
24 Jan - 15:52:05 10° SW 15:56:10 12° SSW 15:59:48 10° S daylight
24 Jan - 22:29:13 10° SW 22:33:06 36° SE 22:36:48 10° ENE visible
25 Jan - 00:38:28 10° WNW 00:41:27 19° NNW 00:44:57 10° NNE night (unlit)
25 Jan - 07:12:22 10° NNW 07:21:10 20° NNE 07:31:56 10° ENE daylight
25 Jan - 09:19:48 10° NW 09:34:46 53° NE 09:51:52 10° ESE daylight
25 Jan - 11:30:37 10° WNW 11:48:10 72° SW 12:04:17 10° SE daylight
25 Jan - 13:47:18 10° W 14:01:25 30° SSW 14:12:43 10° SSE daylight
25 Jan - 22:47:01 10° SW 22:51:11 79° SE 22:55:13 10° ENE visible
26 Jan - 00:58:58 10° NW 00:59:55 11° NNW 01:00:55 10° N night (unlit)
26 Jan - 07:29:39 10° NNW 07:40:03 26° NNE 07:53:07 10° E daylight
26 Jan - 09:37:38 10° NW 09:53:12 67° NE 10:10:49 10° ESE daylight
26 Jan - 11:49:24 10° WNW 12:06:35 58° SW 12:22:13 10° SE daylight
26 Jan - 14:08:09 10° WSW 14:20:15 23° SSW 14:30:08 10° SSE daylight
26 Jan - 20:57:29 10° SSW 21:00:41 16° SSE 21:03:25 10° ESE visible
26 Jan - 23:05:17 10° WSW 23:09:13 47° NW 23:13:09 10° NE night (unlit)
27 Jan - 07:47:05 10° NNW 07:58:40 34° NE 08:13:35 10° E daylight
27 Jan - 09:55:39 10° NW 10:11:35 82° NE 10:29:26 10° ESE daylight
27 Jan - 12:08:36 10° WNW 12:25:07 46° SW 12:40:01 10° SE daylight
27 Jan - 14:29:42 10° WSW 14:39:21 17° SSW 14:47:26 10° S daylight
27 Jan - 21:14:36 10° SSW 21:19:05 29° SSE 21:22:39 10° E visible
27 Jan - 23:24:05 10° W 23:27:19 23° NNW 23:30:37 10° NNE night (unlit)
